SL-12 DEB, 44560

Orbit data source: Space-Track

SL-12 DEB, 44560 is space debris in HEO originally from a launch on Thu, 02 Sep 2010 UTC launched from the Tyuratam Missile And Space Complex (TTMTR). Debris objects in space refer to the collection of defunct objects orbiting the Earth. Examples of debris include non-operational satellites, rocket bodies, and fragments generated from explosions, collisions, or faulty payload assembly.

Loading next visibility...
Identifier
44560, 2010-041AF
Orbit
HEO
Last TLE update
1 day ago
Origin
Manufacturer
RKKE
Mission
Spacecraft
Bus & Motor
Unknown
Mass
Unknown
Launch date (UTC)
2010-09-02 (15 years ago)
Launch vehicle
Unknown
Launch site
Tyuratam Missile And Space Complex (TTMTR)
Object type
Payload
Rocket body
Debris
Shape & HBR
Unknown
Radar Cross Section
Medium (>0.1 m² and <1 m²)

Expand to show TLE details & history

TLE from 1 day ago
0 SL-12 DEB
1 44560U 10041AF  25128.28264260  .00000638  00000-0  20642-2 0  9996
2 44560  65.2628 189.2490 5469584 291.0215  20.3849  4.57170401 92167
Epoch: 2025-05-08T06:47Z
Definitive object data (Epoch: 2025-05-08T06:47:00.32Z)
Latitude
0.00001°
Longitude
-138.86123°
Altitude
2,618.966 km
Speed
7.914 km/s
True Right ascension
12h 36m 58s
True Declination
0° 00' 00"
Sunlit
Object was in full shadow at TLE epoch
Visualization TLE readout
Latitude
40.99563°
Longitude
17.18371°
Altitude
15,296.927 km
Speed
3.286 km/s
Apparent Right ascension
23h 53m 21s
Apparent Declination
27° 51' 25"
Sunlit
Object is in daylight
Visualization observer readout
Local Sidereal Time
15:09:14
Azimuth
42.385° NE
Elevation
-8.355°
Doppler factor
1
Orbital elements
Apogee altitude
17,342.651 km
Perigee altitude
568.723 km
Semi-major axis
15,333.824 km
Eccentricity
0.5469584
Inclination
65.2628°
RAAN
189.249°
Arg. of periapsis
291.0215°
True anomaly
69.14601°
Mean anomaly
20.3849°
Eccentric anomaly
40.90586°
Mean motion
1.14306 °/min
BSTAR
0.0020642
Orbital period
314.95 mins
Loading maneuver chart data...
Loading SW <> Apogee altitude chart data...
Loading historical data...
Loading historical data...
Loading historical data...
Loading historical data...
Loading historical data...
Loading historical data...
Loading historical data...

SL-12 DEB Visibility forecast

Observer location: undefined°, undefined°

Span
Click to sort rows by Start time (UTC) header in descending order
Start Az.
Max El. time (UTC)
Max El. Az.
Max El.
End time (UTC)
End Az.
236 mins2025-05-09 09:17:19.053Z275.69° WNW2025-05-09 11:03:19.053Z22.695° NE39.619°2025-05-09 13:13:19.053Z117.71° SE
193 mins2025-05-09 15:22:19.053Z328.759° NNW2025-05-09 17:24:19.053Z289.932° WNW36.889°2025-05-09 18:35:19.053Z223.097° SW
53 mins2025-05-10 01:12:19.053Z64.968° ENE2025-05-10 01:32:19.053Z44.359° NE13.677°2025-05-10 02:05:19.053Z26.761° NE
54 mins2025-05-10 06:06:19.053Z218.728° SW2025-05-10 06:30:19.053Z305.621° NW44.499°2025-05-10 07:00:19.053Z18.705° NNE
|